Weather History for Girona, Spain

Change the Weather History Date:

Monday, April 8, 2013

  Actual Average Record
Temperature  
Mean Temperature 50 °F -  
Max Temperature 59 °F 68 °F 84 °F (2011)
Min Temperature 41 °F 46 °F 37 °F (2001)
Degree Days  
Heating Degree Days 15    
Moisture  
Dew Point 44 °F    
Average Humidity 85    
Maximum Humidity 100    
Minimum Humidity 45    
Precipitation  
Precipitation 0.00 in 0.10 in - ()
Sea Level Pressure  
Sea Level Pressure 29.80 in    
Wind  
Wind Speed 2 mph ()    
Max Wind Speed 12 mph    
Max Gust Speed 21 mph    
Visibility 6.1 miles    
Events      
Averages and records for this station are not official NWS values.
T = Trace of Precipitation, MM = Missing Value Source: Averaged Metar Reports

Daily Weather History Graph

Daily Weather History Graph

Search for Another Location

Airport:

Trip Planner

Search our weather history database for the weather conditions in past years. The results will help you decide how hot, cold, wet, or windy it might be!

Date:

Astronomy

Apr. 08, 2013 Rise Set
Actual Time 7:19 AM CEST 8:22 PM CEST
Civil Twilight 6:51 AM CEST 8:50 PM CEST
Nautical Twilight 6:17 AM CEST 9:24 PM CEST
Astronomical Twilight 5:42 AM CEST 10:00 PM CEST
Moon 6:03 AM CEST (4/8) 6:39 PM CEST (4/8)
Length of Visible Light 13h 59m
Length of Day
13h 02m
Waning Crescent, 4% of the Moon is Illuminated
Apr 8
Waning Crescent
Apr 10
New
Apr 18
First Quarter
Apr 25
Full
May 2
Last Quarter

Hourly Weather History & Observations

Time (CEST) Temp. Windchill Dew Point Humidity Pressure Visibility Wind Dir Wind Speed Gust Speed Precip Events Conditions
12:00 AM 50.0 °F - 46.4 °F 87% 29.86 in 6.2 mi Variable 1.2 mph - N/A   Partly Cloudy
12:30 AM 48.2 °F - 46.4 °F 93% 29.86 in 6.2 mi Variable 1.2 mph - N/A   Scattered Clouds
1:00 AM 48.2 °F - 46.4 °F 93% 29.86 in 6.2 mi Calm Calm - N/A   Scattered Clouds
1:30 AM 46.4 °F - 46.4 °F 100% 29.83 in 6.2 mi Calm Calm - N/A   Scattered Clouds
2:00 AM 46 °F - 43 °F 85% 29.85 in - Calm Calm - -  
2:00 AM 44.6 °F - 44.6 °F 100% 29.83 in 6.2 mi Calm Calm - N/A   Partly Cloudy
2:30 AM 42.8 °F - 42.8 °F 100% 29.83 in 6.2 mi Calm Calm - N/A   Partly Cloudy
3:00 AM 44.6 °F - 44.6 °F 100% 29.83 in 6.2 mi NNE 2.3 mph - N/A   Partly Cloudy
3:30 AM 42.8 °F 41.1 °F 42.8 °F 100% 29.80 in 5.6 mi NNE 3.5 mph - N/A   Partly Cloudy
4:00 AM 42.8 °F - 42.8 °F 100% 29.80 in 5.0 mi Calm Calm - N/A   Partly Cloudy
4:30 AM 41.0 °F - 41.0 °F 100% 29.80 in 5.0 mi Calm Calm - N/A   Partly Cloudy
5:00 AM 41.0 °F - 41.0 °F 100% 29.80 in 5.0 mi Calm Calm - N/A   Partly Cloudy
5:30 AM 41.0 °F - 41.0 °F 100% 29.80 in 5.0 mi Variable 2.3 mph - N/A   Partly Cloudy
6:00 AM 41.0 °F - 41.0 °F 100% 29.77 in 4.3 mi Calm Calm - N/A   Partly Cloudy
6:30 AM 41.0 °F - 41.0 °F 100% 29.77 in 5.0 mi Calm Calm - N/A   Partly Cloudy
7:00 AM 41.0 °F - 41.0 °F 100% 29.77 in 6.2 mi West 1.2 mph - N/A   Partly Cloudy
7:30 AM 42.8 °F - 42.8 °F 100% 29.77 in 6.2 mi Calm Calm - N/A   Partly Cloudy
8:00 AM 41.0 °F - 41.0 °F 100% 29.77 in 6.2 mi Calm Calm - N/A   Partly Cloudy
8:30 AM 41.0 °F - 41.0 °F 100% 29.77 in 6.2 mi Calm Calm - N/A   Partly Cloudy
9:00 AM 42.8 °F 41.1 °F 42.8 °F 100% 29.77 in 6.2 mi West 3.5 mph - N/A   Partly Cloudy
9:30 AM 44.6 °F - 44.6 °F 100% 29.77 in 6.2 mi Calm Calm - N/A   Partly Cloudy
10:00 AM 46.4 °F - 44.6 °F 93% 29.77 in 6.2 mi Calm Calm - N/A   Partly Cloudy
10:30 AM 50.0 °F - 46.4 °F 87% 29.77 in 6.2 mi Calm Calm - N/A   Partly Cloudy
11:00 AM 50.0 °F - 46.4 °F 87% 29.77 in 6.2 mi Calm Calm - N/A   Partly Cloudy
11:30 AM 53.6 °F - 46.4 °F 77% 29.77 in 6.2 mi Variable 1.2 mph - N/A   Partly Cloudy
12:00 PM 57.2 °F - 44.6 °F 63% 29.77 in 6.2 mi Variable 2.3 mph - N/A   Partly Cloudy
1:00 PM 59.0 °F - 42.8 °F 55% 29.77 in 6.2 mi ENE 6.9 mph - N/A   Partly Cloudy
1:30 PM 57.2 °F - 42.8 °F 59% 29.77 in 6.2 mi NNE 5.8 mph - N/A   Scattered Clouds
2:00 PM 59 °F - 43 °F 45% 29.75 in - East 6.9 mph - -  
2:00 PM 59.0 °F - 41.0 °F 51% 29.77 in 6.2 mi East 5.8 mph - N/A   Mostly Cloudy
2:30 PM 57.2 °F - 44.6 °F 63% 29.77 in 6.2 mi East 11.5 mph - N/A   Mostly Cloudy
3:00 PM 55.4 °F - 44.6 °F 67% 29.77 in 6.2 mi East 8.1 mph 19.6 mph N/A   Mostly Cloudy
3:30 PM 55.4 °F - 42.8 °F 63% 29.77 in 6.2 mi ENE 8.1 mph - N/A   Mostly Cloudy
4:00 PM 57.2 °F - 44.6 °F 63% 29.77 in 6.2 mi ENE 6.9 mph 20.7 mph N/A   Scattered Clouds
4:30 PM 55.4 °F - 44.6 °F 67% 29.77 in 6.2 mi NE 8.1 mph - N/A   Mostly Cloudy
5:00 PM 55.4 °F - 42.8 °F 63% 29.77 in 6.2 mi NE 10.4 mph - N/A   Mostly Cloudy
5:30 PM 55.4 °F - 41.0 °F 58% 29.77 in 6.2 mi NE 6.9 mph - N/A   Mostly Cloudy
6:00 PM 51.8 °F - 46.4 °F 82% 29.80 in 6.2 mi North 5.8 mph - N/A   Mostly Cloudy
6:30 PM 51.8 °F - 46.4 °F 82% 29.80 in 6.2 mi North 5.8 mph - N/A   Mostly Cloudy
7:00 PM 51.8 °F - 46.4 °F 82% 29.80 in 6.2 mi North 3.5 mph - N/A   Mostly Cloudy
7:30 PM 51.8 °F - 46.4 °F 82% 29.80 in 6.2 mi Calm Calm - N/A   Mostly Cloudy
8:00 PM 51 °F - 46 °F 75% 29.81 in 12 mi Calm Calm - -   Mostly Cloudy
8:00 PM 50.0 °F - 46.4 °F 87% 29.80 in 6.2 mi Calm Calm - N/A   Mostly Cloudy
8:30 PM 50.0 °F - 44.6 °F 82% 29.83 in 6.2 mi NW 1.2 mph - N/A   Mostly Cloudy
9:00 PM 50.0 °F - 44.6 °F 82% 29.83 in 6.2 mi Calm Calm - N/A   Scattered Clouds
9:30 PM 48.2 °F - 44.6 °F 87% 29.83 in 6.2 mi Calm Calm - N/A   Scattered Clouds
10:00 PM 46.4 °F - 44.6 °F 93% 29.86 in 6.2 mi Variable 1.2 mph - N/A   Scattered Clouds
10:30 PM 44.6 °F - 42.8 °F 93% 29.86 in 6.2 mi Calm Calm - N/A   Partly Cloudy
11:00 PM 44.6 °F - 42.8 °F 93% 29.86 in 6.2 mi Calm Calm - N/A   Partly Cloudy
11:30 PM 42.8 °F - 42.8 °F 100% 29.86 in 6.2 mi Calm Calm - N/A   Partly Cloudy